Time,TemperatureF,DewpointF,PressureIn,WindDirection,WindDirectionDegrees,WindSpeedMPH,WindSpeedGustMPH,Humidity,HourlyPrecipIn,Conditions,Clouds,dailyrainin,SoftwareType,DateUTC
2013-02-01 00:01:00,26.0,18.0,-100.00,SW,219,22.0,37.0,70,0.00,,,-99.99,,2013-02-01 07:01:00,
2013-02-01 00:12:00,26.0,17.0,-100.00,SW,219,23.0,35.0,68,0.00,,,-99.99,,2013-02-01 07:12:00,
2013-02-01 00:22:00,26.0,17.0,-100.00,SSW,208,25.0,39.0,67,0.00,,,-99.99,,2013-02-01 07:22:00,
2013-02-01 00:32:00,26.0,17.0,-100.00,SSW,206,34.0,45.0,68,0.00,,,-99.99,,2013-02-01 07:32:00,
2013-02-01 00:42:00,26.0,17.0,-100.00,SSW,208,36.0,46.0,67,0.00,,,-99.99,,2013-02-01 07:42:00,
2013-02-01 00:51:00,26.0,17.0,-100.00,SW,215,34.0,47.0,69,0.00,,,-99.99,,2013-02-01 07:51:00,
2013-02-01 01:01:00,26.0,17.0,-100.00,SW,224,34.0,44.0,69,0.00,,,-99.99,,2013-02-01 08:01:00,
2013-02-01 01:11:00,26.0,18.0,-100.00,SW,229,31.0,41.0,71,0.00,,,-99.99,,2013-02-01 08:11:00,
2013-02-01 01:21:00,26.0,18.0,-100.00,WSW,237,30.0,38.0,73,0.00,,,-99.99,,2013-02-01 08:21:00,
2013-02-01 01:32:00,26.0,18.0,-100.00,WSW,237,28.0,37.0,74,0.00,,,-99.99,,2013-02-01 08:32:00,
2013-02-01 01:42:00,26.0,18.0,-100.00,SW,236,29.0,37.0,74,0.00,,,-99.99,,2013-02-01 08:42:00,
2013-02-01 01:52:00,26.0,18.0,-100.00,SW,229,26.0,37.0,73,0.00,,,-99.99,,2013-02-01 08:52:00,
2013-02-01 02:01:00,26.0,18.0,-100.00,SW,232,20.0,29.0,71,0.00,,,-99.99,,2013-02-01 09:01:00,
2013-02-01 02:11:00,26.0,19.0,-100.00,SW,229,21.0,30.0,75,0.00,,,-99.99,,2013-02-01 09:11:00,
2013-02-01 02:21:00,25.0,19.0,-100.00,SW,222,24.0,39.0,77,0.01,,,-99.99,,2013-02-01 09:21:00,
2013-02-01 02:32:00,26.0,19.0,-100.00,SW,226,26.0,38.0,76,0.00,,,-99.99,,2013-02-01 09:32:00,
2013-02-01 02:41:00,26.0,18.0,-100.00,SW,229,26.0,42.0,73,0.00,,,-99.99,,2013-02-01 09:41:00,
2013-02-01 02:51:00,26.0,19.0,-100.00,SW,230,24.0,37.0,75,0.00,,,-99.99,,2013-02-01 09:51:00,
2013-02-01 03:01:00,26.0,20.0,-100.00,SW,227,29.0,40.0,78,0.00,,,-99.99,,2013-02-01 10:01:00,
2013-02-01 03:11:00,26.0,20.0,-100.00,SW,226,29.0,40.0,79,0.01,,,-99.99,,2013-02-01 10:11:00,
2013-02-01 03:21:00,26.0,20.0,-100.00,SW,224,33.0,44.0,78,0.00,,,-99.99,,2013-02-01 10:21:00,
2013-02-01 03:31:00,25.0,21.0,-100.00,SW,224,35.0,47.0,82,0.00,,,-99.99,,2013-02-01 10:31:00,
2013-02-01 03:42:00,25.0,21.0,-100.00,SW,227,36.0,52.0,86,0.01,,,-99.99,,2013-02-01 10:42:00,
2013-02-01 03:52:00,25.0,22.0,-100.00,SW,226,35.0,45.0,88,0.01,,,-99.99,,2013-02-01 10:52:00,
2013-02-01 04:02:00,25.0,22.0,-100.00,SW,229,31.0,40.0,87,0.03,,,-99.99,,2013-02-01 11:02:00,
2013-02-01 04:11:00,25.0,22.0,-100.00,SW,229,33.0,46.0,87,0.01,,,-99.99,,2013-02-01 11:11:00,
2013-02-01 04:22:00,25.0,22.0,-100.00,SW,232,32.0,41.0,87,0.01,,,-99.99,,2013-02-01 11:22:00,
2013-02-01 04:32:00,25.0,21.0,-100.00,SW,233,32.0,43.0,83,0.00,,,-99.99,,2013-02-01 11:32:00,
2013-02-01 04:41:00,26.0,21.0,-100.00,SW,233,32.0,44.0,82,0.01,,,-99.99,,2013-02-01 11:41:00,
2013-02-01 04:53:00,26.0,20.0,-100.00,SW,232,32.0,47.0,79,0.00,,,-99.99,,2013-02-01 11:53:00,
2013-02-01 05:02:00,26.0,21.0,-100.00,SW,230,34.0,45.0,82,0.00,,,-99.99,,2013-02-01 12:02:00,
2013-02-01 05:12:00,25.0,21.0,-100.00,SW,230,34.0,44.0,83,0.00,,,-99.99,,2013-02-01 12:12:00,
2013-02-01 05:22:00,26.0,20.0,-100.00,SW,229,32.0,42.0,77,0.00,,,-99.99,,2013-02-01 12:22:00,
2013-02-01 05:32:00,27.0,19.0,-100.00,SW,227,35.0,45.0,73,0.00,,,-99.99,,2013-02-01 12:32:00,
2013-02-01 05:42:00,27.0,18.0,-100.00,SW,223,32.0,42.0,70,0.00,,,-99.99,,2013-02-01 12:42:00,
2013-02-01 05:52:00,26.0,18.0,-100.00,SW,220,30.0,40.0,70,0.00,,,-99.99,,2013-02-01 12:52:00,
2013-02-01 06:02:00,26.0,19.0,-100.00,SW,217,32.0,43.0,74,0.00,,,-99.99,,2013-02-01 13:02:00,
2013-02-01 06:11:00,26.0,19.0,-100.00,SW,219,30.0,40.0,76,0.00,,,-99.99,,2013-02-01 13:11:00,
2013-02-01 06:22:00,26.0,19.0,-100.00,SW,220,32.0,39.0,76,0.00,,,-99.99,,2013-02-01 13:22:00,
2013-02-01 06:32:00,26.0,19.0,-100.00,SW,219,32.0,44.0,74,0.00,,,-99.99,,2013-02-01 13:32:00,
2013-02-01 06:42:00,26.0,20.0,-100.00,SW,219,30.0,44.0,76,0.00,,,-99.99,,2013-02-01 13:42:00,
2013-02-01 06:52:00,26.0,20.0,-100.00,SW,219,27.0,37.0,78,0.01,,,-99.99,,2013-02-01 13:52:00,
2013-02-01 07:03:00,26.0,20.0,-100.00,SW,217,29.0,38.0,79,0.00,,,-99.99,,2013-02-01 14:03:00,
2013-02-01 07:11:00,25.0,20.0,-100.00,SW,217,29.0,38.0,81,0.01,,,-99.99,,2013-02-01 14:11:00,
2013-02-01 07:21:00,26.0,20.0,-100.00,SW,216,28.0,37.0,81,0.01,,,-99.99,,2013-02-01 14:21:00,
2013-02-01 07:32:00,25.0,21.0,-100.00,SW,216,25.0,35.0,85,0.01,,,-99.99,,2013-02-01 14:32:00,
2013-02-01 07:42:00,25.0,22.0,-100.00,SW,217,26.0,36.0,87,0.01,,,-99.99,,2013-02-01 14:42:00,
2013-02-01 07:52:00,25.0,22.0,-100.00,SW,223,27.0,38.0,87,0.01,,,-99.99,,2013-02-01 14:52:00,
2013-02-01 08:02:00,25.0,22.0,-100.00,SW,224,27.0,42.0,87,0.01,,,-99.99,,2013-02-01 15:02:00,
2013-02-01 08:12:00,26.0,22.0,-100.00,SW,223,28.0,38.0,85,0.01,,,-99.99,,2013-02-01 15:12:00,
2013-02-01 08:21:00,26.0,22.0,-100.00,SW,219,30.0,39.0,86,0.01,,,-99.99,,2013-02-01 15:21:00,
2013-02-01 08:33:00,26.0,22.0,-100.00,SW,216,32.0,45.0,88,0.01,,,-99.99,,2013-02-01 15:33:00,
2013-02-01 08:42:00,26.0,22.0,-100.00,SW,216,32.0,44.0,85,0.00,,,-99.99,,2013-02-01 15:42:00,
2013-02-01 08:52:00,26.0,22.0,-100.00,SW,215,33.0,45.0,83,0.01,,,-99.99,,2013-02-01 15:52:00,
2013-02-01 09:03:00,27.0,21.0,-100.00,SSW,212,32.0,44.0,77,0.00,,,-99.99,,2013-02-01 16:03:00,
2013-02-01 09:11:00,27.0,20.0,-100.00,SW,217,31.0,44.0,74,0.00,,,-99.99,,2013-02-01 16:11:00,
2013-02-01 09:22:00,28.0,19.0,-100.00,SW,217,30.0,39.0,69,0.00,,,-99.99,,2013-02-01 16:22:00,
2013-02-01 09:33:00,28.0,19.0,-100.00,SW,216,29.0,46.0,67,0.00,,,-99.99,,2013-02-01 16:33:00,
2013-02-01 09:42:00,28.0,20.0,-100.00,SW,219,28.0,41.0,70,0.00,,,-99.99,,2013-02-01 16:42:00,
2013-02-01 09:52:00,28.0,20.0,-100.00,SW,222,32.0,41.0,74,0.01,,,-99.99,,2013-02-01 16:52:00,
2013-02-01 10:02:00,28.0,21.0,-100.00,SW,223,29.0,39.0,74,0.01,,,-99.99,,2013-02-01 17:02:00,
2013-02-01 10:11:00,28.0,21.0,-100.00,SW,222,32.0,42.0,73,0.00,,,-99.99,,2013-02-01 17:11:00,
2013-02-01 10:22:00,28.0,20.0,-100.00,SW,222,34.0,45.0,71,0.00,,,-99.99,,2013-02-01 17:22:00,
2013-02-01 10:32:00,28.0,20.0,-100.00,SW,229,33.0,45.0,72,0.00,,,-99.99,,2013-02-01 17:32:00,
2013-02-01 10:42:00,28.0,21.0,-100.00,SW,234,29.0,40.0,75,0.00,,,-99.99,,2013-02-01 17:42:00,
2013-02-01 10:52:00,28.0,21.0,-100.00,WSW,237,27.0,37.0,75,0.00,,,-99.99,,2013-02-01 17:52:00,
2013-02-01 11:02:00,28.0,22.0,-100.00,SW,234,29.0,37.0,77,0.00,,,-99.99,,2013-02-01 18:02:00,
2013-02-01 11:12:00,28.0,21.0,-100.00,SW,230,29.0,43.0,74,0.00,,,-99.99,,2013-02-01 18:12:00,
2013-02-01 11:22:00,28.0,21.0,-100.00,SW,223,29.0,37.0,75,0.00,,,-99.99,,2013-02-01 18:22:00,
2013-02-01 11:32:00,28.0,21.0,-100.00,SW,223,30.0,38.0,76,0.03,,,-99.99,,2013-02-01 18:32:00,
2013-02-01 11:42:00,28.0,21.0,-100.00,SW,229,26.0,35.0,73,0.01,,,-99.99,,2013-02-01 18:42:00,
2013-02-01 11:52:00,29.0,21.0,-100.00,SW,229,27.0,38.0,71,0.00,,,-99.99,,2013-02-01 18:52:00,
2013-02-01 12:02:00,29.0,19.0,-100.00,SW,224,32.0,42.0,66,0.00,,,-99.99,,2013-02-01 19:02:00,
2013-02-01 12:11:00,29.0,20.0,-100.00,SW,224,30.0,42.0,69,0.00,,,-99.99,,2013-02-01 19:11:00,
2013-02-01 12:21:00,29.0,20.0,-100.00,SW,224,31.0,41.0,72,0.01,,,-99.99,,2013-02-01 19:21:00,
2013-02-01 12:32:00,28.0,20.0,-100.00,SW,222,29.0,40.0,72,0.00,,,-99.99,,2013-02-01 19:32:00,
2013-02-01 12:41:00,28.0,21.0,-100.00,SW,223,27.0,42.0,74,0.01,,,-99.99,,2013-02-01 19:41:00,
2013-02-01 12:51:00,28.0,21.0,-100.00,SW,224,27.0,37.0,75,0.00,,,-99.99,,2013-02-01 19:51:00,
2013-02-01 13:02:00,28.0,21.0,-100.00,SW,224,28.0,39.0,75,0.00,,,-99.99,,2013-02-01 20:02:00,
2013-02-01 13:11:00,27.0,22.0,-100.00,SW,223,28.0,39.0,80,0.01,,,-99.99,,2013-02-01 20:11:00,
2013-02-01 13:21:00,28.0,20.0,-100.00,SW,224,27.0,35.0,73,0.00,,,-99.99,,2013-02-01 20:21:00,
2013-02-01 13:31:00,28.0,21.0,-100.00,SW,229,27.0,36.0,75,0.00,,,-99.99,,2013-02-01 20:31:00,
2013-02-01 13:41:00,28.0,20.0,-100.00,SW,229,29.0,40.0,72,0.00,,,-99.99,,2013-02-01 20:41:00,
2013-02-01 13:52:00,28.0,21.0,-100.00,SW,226,32.0,42.0,73,0.00,,,-99.99,,2013-02-01 20:52:00,
2013-02-01 14:02:00,28.0,21.0,-100.00,SW,222,29.0,40.0,76,0.00,,,-99.99,,2013-02-01 21:02:00,
2013-02-01 14:11:00,28.0,21.0,-100.00,SW,222,29.0,39.0,73,0.00,,,-99.99,,2013-02-01 21:11:00,
2013-02-01 14:21:00,27.0,23.0,-100.00,SW,226,26.0,38.0,83,0.00,,,-99.99,,2013-02-01 21:21:00,
2013-02-01 14:32:00,27.0,23.0,-100.00,SW,223,26.0,36.0,84,0.01,,,-99.99,,2013-02-01 21:32:00,
2013-02-01 14:41:00,28.0,22.0,-100.00,SW,223,24.0,36.0,77,0.00,,,-99.99,,2013-02-01 21:41:00,
2013-02-01 14:52:00,28.0,21.0,-100.00,SW,219,29.0,39.0,76,0.00,,,-99.99,,2013-02-01 21:52:00,
2013-02-01 15:02:00,28.0,21.0,-100.00,SW,220,29.0,40.0,75,0.00,,,-99.99,,2013-02-01 22:02:00,
2013-02-01 15:11:00,29.0,21.0,-100.00,SW,222,30.0,40.0,73,0.00,,,-99.99,,2013-02-01 22:11:00,
2013-02-01 15:21:00,26.0,24.0,-100.00,SW,220,28.0,40.0,89,0.14,,,-99.99,,2013-02-01 22:21:00,
2013-02-01 15:32:00,26.0,24.0,-100.00,SW,219,29.0,41.0,94,0.33,,,-99.99,,2013-02-01 22:32:00,
2013-02-01 15:42:00,26.0,24.0,-100.00,SW,224,27.0,38.0,94,0.01,,,-99.99,,2013-02-01 22:42:00,
2013-02-01 15:51:00,26.0,24.0,-100.00,SW,230,24.0,31.0,89,0.03,,,-99.99,,2013-02-01 22:51:00,
2013-02-01 16:01:00,26.0,23.0,-100.00,SW,232,24.0,36.0,86,0.00,,,-99.99,,2013-02-01 23:01:00,
2013-02-01 16:11:00,27.0,20.0,-100.00,WSW,237,23.0,32.0,76,0.00,,,-99.99,,2013-02-01 23:11:00,
2013-02-01 16:21:00,27.0,19.0,-100.00,WSW,240,25.0,32.0,73,0.00,,,-99.99,,2013-02-01 23:21:00,
2013-02-01 16:31:00,27.0,18.0,-100.00,WSW,239,26.0,32.0,68,0.00,,,-99.99,,2013-02-01 23:31:00,
2013-02-01 16:41:00,27.0,19.0,-100.00,WSW,239,24.0,32.0,71,0.00,,,-99.99,,2013-02-01 23:41:00,
2013-02-01 16:52:00,27.0,19.0,-100.00,WSW,241,26.0,34.0,70,0.00,,,-99.99,,2013-02-01 23:52:00,
2013-02-01 17:02:00,27.0,19.0,-100.00,WSW,239,22.0,32.0,71,0.00,,,-99.99,,2013-02-02 00:02:00,
2013-02-01 17:11:00,27.0,19.0,-100.00,WSW,240,21.0,29.0,71,0.00,,,-99.99,,2013-02-02 00:11:00,
2013-02-01 17:21:00,28.0,19.0,-100.00,WSW,237,22.0,29.0,70,0.00,,,-99.99,,2013-02-02 00:21:00,
2013-02-01 17:32:00,27.0,19.0,-100.00,WSW,239,21.0,26.0,72,0.00,,,-99.99,,2013-02-02 00:32:00,
2013-02-01 17:52:00,27.0,19.0,-100.00,WSW,237,20.0,26.0,73,0.00,,,-99.99,,2013-02-02 00:52:00,
2013-02-01 18:02:00,27.0,18.0,-100.00,WSW,237,21.0,27.0,69,0.00,,,-99.99,,2013-02-02 01:02:00,
2013-02-01 18:11:00,27.0,18.0,-100.00,WSW,239,21.0,29.0,70,0.00,,,-99.99,,2013-02-02 01:11:00,
2013-02-01 18:21:00,27.0,19.0,-100.00,SW,232,23.0,32.0,71,0.00,,,-99.99,,2013-02-02 01:21:00,
2013-02-01 18:32:00,27.0,19.0,-100.00,SW,232,24.0,32.0,70,0.00,,,-99.99,,2013-02-02 01:32:00,
2013-02-01 18:41:00,27.0,19.0,-100.00,SW,230,23.0,29.0,70,0.00,,,-99.99,,2013-02-02 01:41:00,
2013-02-01 18:52:00,27.0,19.0,-100.00,SW,227,23.0,32.0,69,0.00,,,-99.99,,2013-02-02 01:52:00,
2013-02-01 19:01:00,28.0,19.0,-100.00,SW,227,26.0,31.0,69,0.00,,,-99.99,,2013-02-02 02:01:00,
2013-02-01 19:11:00,27.0,18.0,-100.00,SW,232,24.0,34.0,68,0.00,,,-99.99,,2013-02-02 02:11:00,
2013-02-01 19:21:00,27.0,18.0,-100.00,SW,234,22.0,29.0,68,0.00,,,-99.99,,2013-02-02 02:21:00,
2013-02-01 19:32:00,27.0,18.0,-100.00,SW,233,23.0,35.0,69,0.00,,,-99.99,,2013-02-02 02:32:00,
2013-02-01 19:41:00,26.0,19.0,-100.00,SW,229,28.0,40.0,74,0.00,,,-99.99,,2013-02-02 02:41:00,
2013-02-01 19:52:00,27.0,19.0,-100.00,SW,233,27.0,35.0,72,0.00,,,-99.99,,2013-02-02 02:52:00,
2013-02-01 20:02:00,27.0,19.0,-100.00,SW,234,26.0,34.0,72,0.00,,,-99.99,,2013-02-02 03:02:00,
2013-02-01 20:11:00,27.0,18.0,-100.00,WSW,240,28.0,39.0,70,0.00,,,-99.99,,2013-02-02 03:11:00,
2013-02-01 20:21:00,27.0,19.0,-100.00,WSW,241,24.0,30.0,71,0.00,,,-99.99,,2013-02-02 03:21:00,
2013-02-01 20:32:00,27.0,19.0,-100.00,WSW,253,31.0,42.0,74,0.00,,,-99.99,,2013-02-02 03:32:00,
2013-02-01 20:42:00,27.0,20.0,-100.00,WSW,243,29.0,41.0,75,0.00,,,-99.99,,2013-02-02 03:42:00,
2013-02-01 20:51:00,26.0,20.0,-100.00,WSW,243,29.0,39.0,77,0.00,,,-99.99,,2013-02-02 03:51:00,
2013-02-01 21:01:00,26.0,21.0,-100.00,WSW,243,30.0,45.0,84,0.00,,,-99.99,,2013-02-02 04:01:00,
2013-02-01 21:11:00,26.0,20.0,-100.00,WSW,243,30.0,42.0,80,0.00,,,-99.99,,2013-02-02 04:11:00,
2013-02-01 21:21:00,26.0,18.0,-100.00,WSW,244,29.0,41.0,71,0.00,,,-99.99,,2013-02-02 04:21:00,
2013-02-01 21:32:00,26.0,18.0,-100.00,WSW,240,32.0,42.0,73,0.00,,,-99.99,,2013-02-02 04:32:00,
2013-02-01 21:41:00,25.0,17.0,-100.00,WSW,237,33.0,45.0,70,0.00,,,-99.99,,2013-02-02 04:41:00,
2013-02-01 21:51:00,26.0,16.0,-100.00,SW,236,34.0,43.0,66,0.00,,,-99.99,,2013-02-02 04:51:00,
2013-02-01 22:03:00,26.0,16.0,-100.00,SW,234,31.0,42.0,65,0.00,,,-99.99,,2013-02-02 05:03:00,
2013-02-01 22:12:00,26.0,16.0,-100.00,WSW,237,34.0,43.0,64,0.00,,,-99.99,,2013-02-02 05:12:00,
2013-02-01 22:22:00,26.0,17.0,-100.00,SW,236,29.0,39.0,70,0.00,,,-99.99,,2013-02-02 05:22:00,
2013-02-01 22:33:00,26.0,17.0,-100.00,SW,236,32.0,45.0,66,0.00,,,-99.99,,2013-02-02 05:33:00,
2013-02-01 22:41:00,26.0,17.0,-100.00,SW,236,30.0,39.0,68,0.00,,,-99.99,,2013-02-02 05:41:00,
2013-02-01 22:52:00,26.0,17.0,-100.00,SW,234,29.0,40.0,70,0.00,,,-99.99,,2013-02-02 05:52:00,
2013-02-01 23:02:00,25.0,17.0,-100.00,SW,233,31.0,43.0,71,0.00,,,-99.99,,2013-02-02 06:02:00,
2013-02-01 23:12:00,25.0,18.0,-100.00,SW,232,30.0,42.0,73,0.00,,,-99.99,,2013-02-02 06:12:00,
2013-02-01 23:21:00,25.0,18.0,-100.00,SW,233,30.0,42.0,73,0.00,,,-99.99,,2013-02-02 06:21:00,
2013-02-01 23:31:00,25.0,17.0,-100.00,SW,236,29.0,38.0,72,0.00,,,-99.99,,2013-02-02 06:31:00,
2013-02-01 23:41:00,25.0,18.0,-100.00,SW,232,30.0,39.0,75,0.00,,,-99.99,,2013-02-02 06:41:00,
2013-02-01 23:51:00,24.0,19.0,-100.00,SW,224,31.0,49.0,81,0.00,,,-99.99,,2013-02-02 06:51:00,